Regional Weather Roundup
Issued by NWS

Home | Current Version | Previous Version | Graphics & Text | Print | Product List | Glossary On
Versions: 1 2 3 4 5 6 7 8 9 10 11 12 13 14 15 16 17 18 19 20 21 22 23 24 25 26 27 28 29 30 31 32 33 34 35 36 37 38 39 40 41 42 43 44 45 46 47 48 49 50
000
ASUS43 KMPX 290001
RWRMN
WEATHER ROUNDUP FOR MINNESOTA
NATIONAL WEATHER SERVICE TWIN CITIES/CHANHASSEN MN
700 PM CDT SAT MAY 28 2016


NOTE: "FAIR" INDICATES FEW OR NO CLOUDS BELOW 12,000 FEET WITH NO
SIGNIFICANT WEATHER AND/OR OBSTRUCTIONS TO VISIBILITY. N/A MEANS
CURRENT SKY AND/OR WEATHER CONDITIONS ARE NOT AVAILABLE.

MNZ060>063-068>070-290100-
   Twin Cities Metro

CITY           SKY/WX    TMP DP  RH WIND       PRES   REMARKS
TWIN CITIES    LGT RAIN  65  60  84 N3        29.77S
6HR MIN TEMP:  64; 6HR MAX TEMP:  68; 6HR PCP:  0.29;

ST PAUL        CLOUDY    65  60  84 N5        29.77S
CRYSTAL        CLOUDY    66  58  75 N3        29.76S
BLAINE         CLOUDY    66  63  88 CALM      29.77S
EDEN PRAIRIE   LGT RAIN  64  60  87 NW7       29.77R FOG
6HR MIN TEMP:  64; 6HR MAX TEMP:  68; 6HR PCP:  0.19;

SOUTH ST PAUL  CLOUDY    64  61  89 N3        29.76F
LAKE ELMO      CLOUDY    64  63  94 N5        29.78S
$$
MNZ001>005-007-008-013>017-022>024-027-028-290100-
   Northwest Minnesota

CITY           SKY/WX    TMP DP  RH WIND       PRES   REMARKS
BEMIDJI        CLOUDY    59  58  96 NW5       29.79F
HALLOCK        LGT RAIN  64  61  88 CALM      29.84R
ROSEAU         LGT RAIN  59  54  82 NE9       29.85S
WARROAD        DRIZZLE   57  54  88 N9        29.86S
THIEF RVR FALL CLOUDY    61  57  88 NE12      29.84S
CROOKSTON      RAIN      61  61 100 NE7       29.84R
FOSSTON        DRIZZLE   57  57 100 N7        29.82S
DETROIT LAKES  CLOUDY    61  57  88 NW7       29.81S
MOORHEAD       CLOUDY    63  59  88 N8        29.82R
PARK RAPIDS    LGT RAIN  61  57  87 NW8       29.78F
MAHNOMEN       RAIN      59  58  97 NW6       29.81S
$$
MNZ006-009>011-018-025>026-290100-
   North Central Minnesota

CITY           SKY/WX    TMP DP  RH WIND       PRES   REMARKS
BAUDETTE       CLOUDY    57  55  93 NE12      29.83R
FLAG ISLAND    CLOUDY    57  55  94 NE16      29.85S FOG
INTL FALLS     LGT RAIN  59  57  93 NE6       29.81S VSB 3/4
6HR MIN TEMP:  59; 6HR MAX TEMP:  60; 6HR PCP:  0.08;

WASKISH        CLOUDY    61  57  88 NE3       29.81S
BIG FORK       DRIZZLE   61  59  94 N5        29.80S
LONGVILLE      LGT RAIN  61  57  88 CALM      29.78F
GRAND RAPIDS   CLOUDY    62  58  86 CALM      29.80F
CRANE LAKE     CLOUDY    61  59  94 CALM      29.82R
ORR            CLOUDY    61  57  88 CALM      29.78R FOG
COOK           CLOUDY    61  61 100 CALM      29.80S FOG
WALKER         CLOUDY    59  57  94 N3        29.79S
$$
MNZ012-019>021-037-290100-
   Northeast Minnesota

CITY           SKY/WX    TMP DP  RH WIND       PRES   REMARKS
DULUTH         LGT RAIN  55  53  93 CALM      29.80F FOG
6HR MIN TEMP:  52; 6HR MAX TEMP:  64; 6HR PCP:  0.02;

ELY            CLOUDY    63  61  94 CALM      29.80S
HIBBING        CLOUDY    60  58  92 E5        29.79F
EVELETH        CLOUDY    59  57  94 CALM      29.81F
DULUTH HARBOR  CLOUDY    50  48  93 N7        29.82F
TWO HARBORS    HAZE      57  52  82 E3        29.80R VSB 1/4
SILVER BAY     FOG       57  57 100 CALM      29.80R VSB 1/2
GRAND MARAIS     N/A     45  43  93 W10       29.80R
G MARAIS ARPRT CLOUDY    63  57  82 CALM      29.83R
$$
MNZ029>031-032-039>041-046>048-054>057-064-290100-
   West Central Minnesota

CITY           SKY/WX    TMP DP  RH WIND       PRES   REMARKS
FERGUS FALLS   CLOUDY    63  57  82 NW7       29.77R
WHEATON        CLOUDY    66  59  77 CALM      29.82S
MORRIS         CLOUDY    63  61  94 NW3       29.79S
ALEXANDRIA     CLOUDY    62  57  83 NW3       29.81R
ELBOW LAKE     DRIZZLE   62  58  88 NW5       29.81R
WADENA         RAIN      59  55  88 CALM      29.79R
GLENWOOD       PTSUNNY   63  57  82 CALM      29.81S
APPLETON       CLOUDY    66  61  82 CALM      29.80S
ORTONVILLE     DRIZZLE   64  57  77 NW5       29.81S
MADISON        CLOUDY    64  61  88 W5        29.82R
WILLMAR        FAIR      66  59  77 NW10      29.81R
$$
MNZ033>034-036-042>043-049>051-058-059-290100-
   Central Minnesota

CITY           SKY/WX    TMP DP  RH WIND       PRES   REMARKS
ST CLOUD       CLOUDY    63  60  90 NW8       29.79R
6HR MIN TEMP:  60; 6HR MAX TEMP:  64; 6HR PCP:  0.07;

SAUK CENTRE    CLOUDY    63  57  81 NW3       29.80S
PAYNESVILLE    CLOUDY    64  60  84 NW3       29.80R
AITKIN         CLOUDY    63  55  77 CALM      29.78R
PINE RIVER     LGT RAIN  61  59  94 CALM      29.83R
BRAINERD       PTSUNNY   61  58  90 CALM      29.79S
STAPLES        CLOUDY    61  55  82 N5        29.79R
LONG PRAIRIE   CLOUDY    61  55  82 NW3       29.80S
LITTLE FALLS   CLOUDY    61  55  82 CALM      29.79S
LITCHFIELD     CLOUDY    66  63  88 NW7       29.80R
BUFFALO        CLOUDY    64  59  83 CALM      29.79S
MAPLE LAKE     CLOUDY    65  61  86 W5        29.80R
HUTCHINSON     CLOUDY    66  61  83 N7        29.80R
$$
MNZ037-044-045-052-053-290100-
   East Central Minnesota

CITY           SKY/WX    TMP DP  RH WIND       PRES   REMARKS
PRINCETON      CLOUDY    66  61  82 NW3       29.78S
MORA           CLOUDY    64  59  82 CALM      29.79S
CAMBRIDGE      CLOUDY    68  57  68 NW3       29.76S
RUSH CITY      LGT RAIN  63  59  88 N5        29.77F
MOOSE LAKE     DRIZZLE   63  59  88 CALM      29.77S
HINCKLEY       LGT RAIN  63  61  94 NE3       29.78F
CLOQUET        LGT RAIN  55  52  88 E3        29.81R
MCGREGOR       CLOUDY    61  59  94 CALM      29.80R
$$
MNZ071>073-080-081-089-090-097-098-290100-
   Southwest Minnesota

CITY           SKY/WX    TMP DP  RH WIND       PRES   REMARKS
MONTEVIDEO     CLOUDY    64  59  82 NE5       29.82S
GRANITE FALLS  CLOUDY    66  60  80 NW7       29.82S
CANBY          CLOUDY    66  62  86 NW3       29.84R
MARSHALL       PTSUNNY   64  58  80 N10       29.82R
REDWOOD FALLS  CLOUDY    66  59  78 NW5       29.79S
OLIVIA         CLOUDY    70  63  78 NW8       29.79S
PIPESTONE      PTSUNNY   66  57  72 N9        29.83R
WINDOM         LGT RAIN  64  59  82 CALM      29.81R
WORTHINGTON    CLOUDY    64  59  83 NE13      29.82R
JACKSON        LGT RAIN  63  59  88 VRB7      29.80S
TRACY          MOSUNNY   65  60  82 N9        29.82R
SLAYTON        PTSUNNY   64  59  84 N10       29.82R
$$
MNZ065>067-074>077-082>085-091>093-290100-
   South Central Minnesota

CITY           SKY/WX    TMP DP  RH WIND       PRES   REMARKS
MANKATO        CLOUDY    66  61  82 N8        29.78R
NEW ULM        CLOUDY    64  61  88 N7G17     29.78S
ST JAMES       LGT RAIN  61  57  88 NW9       29.80R
FAIRMONT       CLOUDY    63  59  88 CALM      29.78R
GLENCOE        CLOUDY    66  62  87 N3        29.78R
FARIBAULT      PTSUNNY   66  63  88 CALM      29.77S
OWATONNA       PTSUNNY   68  61  77 SW6       29.78R
WASECA         CLOUDY    68  61  77 SW3       29.79R
ALBERT LEA     CLOUDY    66  63  88 CALM      29.79R
$$
MNZ078>079-086>088-094>096-290100-
   Southeast Minnesota

CITY           SKY/WX    TMP DP  RH WIND       PRES   REMARKS
ROCHESTER      LGT RAIN  65  60  84 S3        29.79S
6HR MIN TEMP:  64; 6HR MAX TEMP:  74; 6HR PCP:  0.01;

RED WING       CLOUDY    68  64  88 CALM      29.75S
STANTON        PTSUNNY   69  63  82 N3        29.75S
DODGE CENTER   CLOUDY    64  63  94 SW6       29.78R
WINONA         LGT RAIN  64  59  82 NW10      29.79R
AUSTIN         CLOUDY    64  57  77 S3        29.78R
PRESTON        CLOUDY    63  58  86 N6        29.80R
$$
ABBREVIATIONS USED IN REMARKS
   TC - TEMPERATURES IN CELSIUS
  WCI - WIND CHILL INDEX
   HX - HEAT INDEX
  VSB - VISIBILITY
$$




USA.gov is the U.S. government's official web portal to all federal, state and local government web resources and services.